Regional Weather Roundup
Issued by NWS

Home | Current Version | Previous Version | Graphics & Text | Print | Product List | Glossary On
Versions: 1 2 3 4 5 6 7 8 9 10 11 12 13 14 15 16 17 18 19 20 21 22 23 24 25 26 27 28 29 30 31 32 33 34 35 36 37 38 39 40 41 42 43 44 45 46 47 48 49 50
000
ASUS45 KABQ 042110
RWRNM
NEW MEXICO REGIONAL WEATHER ROUNDUP
NATIONAL WEATHER SERVICE ALBUQUERQUE NM
300 PM MDT SAT JUL 04 2015

NOTE: "FAIR" MEANS FEW OR NO CLOUDS BELOW 12,000 FEET AGL WITH NO
       SIGNIFICANT WEATHER OR OBSTRUCTIONS TO VISION.

      THIS PRODUCT IS RELEASED AS TWO VERSIONS.  ONE VERSION NEAR
      THE TOP OF THE HOUR CONTAINING PRELIMINARY DATA FROM ALBUQUERQUE
      AND OTHER STATIONS.  A FINAL VERSION WITH ADDITIONAL DATA IS
      ISSUED ABOUT 10 MINUTES AFTER THE HOUR.

NMZ501-503-504-510>518-042200-
NORTHWEST PLATEAU/NORTHCENTRAL MOUNTAINS

CITY           SKY/WX    TMP DP  RH WIND       PRES   REMARKS
FARMINGTON     SUNNY     88  50  27 SW9       30.03F
LOS ALAMOS     CLOUDY    74  46  36 S6        30.21F
SANTA FE       CLOUDY    78  57  48 NE6       30.14F
TAOS           PTSUNNY   75  46  35 NW12      30.20R
ANGEL FIRE     FAIR      71  52  52 W14       30.29R

$$
NMZ402-403-502-505>509-042200-
WESTCENTRAL MOUNTAINS/SOUTHWEST MOUNTAINS

CITY           SKY/WX    TMP DP  RH WIND       PRES   REMARKS
GALLUP         PTSUNNY   83  51  33 W17G28    30.13F THUNDER
GRANTS         CLOUDY    66  55  65 SW21G28   30.22R THUNDER
SILVER CITY      N/A     86  55  35 S12       30.10F

$$
NMZ407-409-411-412-042200-
SOUTHERN DESERTS

CITY           SKY/WX    TMP DP  RH WIND       PRES   REMARKS
LORDSBURG      FAIR      88  50  27 N5        30.01F
DEMING         SUNNY     88  60  38 S5        30.00F
LAS CRUCES     PTSUNNY   90  55  29 SE3       30.01F
HOLLOMAN AFB   MOSUNNY   92  51  25 S5        29.97F
ALAMOGORDO     PTSUNNY   90  55  31 E13       30.00F
T OR C         MOSUNNY   89  52  28 S9        30.02F

$$
NMZ519>523-042200-
CENTRAL VALLEYS/CENTRAL HIGHLANDS

CITY           SKY/WX    TMP DP  RH WIND       PRES   REMARKS
ALBUQUERQUE    PTSUNNY   89  50  26 VRB5      30.06F
DOUBLE EAGLE   CLOUDY    72  54  53 N20G26    30.10F THUNDER
MORIARTY ARPT    N/A     66  57  71 W5        30.17F
CLINES CORNERS RAIN      63  55  75 NW6       30.23R
BELEN          FAIR      88  47  23 SW6       30.06S
SOCORRO        FAIR      91  51  25 SE13      30.02F

$$
NMZ524>526-539-540-042200-
SOUTHCENTRAL MOUNTAINS

CITY           SKY/WX    TMP DP  RH WIND       PRES   REMARKS
RUIDOSO        NOT AVBL

$$
NMZ527>531-042200-
NORTHEAST HIGHLANDS/NORTHEAST PLAINS

CITY           SKY/WX    TMP DP  RH WIND       PRES   REMARKS
LAS VEGAS      CLOUDY    73  54  51 W5        30.20F
RATON          PTSUNNY   79  53  40 SW5       30.12R
CLAYTON        SUNNY     92  56  29 SW20G30   30.02F

$$
NMZ532>537-042200-
EASTCENTRAL PLAINS

CITY           SKY/WX    TMP DP  RH WIND       PRES   REMARKS
TUCUMCARI      SUNNY     94  51  23 S18G24    29.98F
CANNON AFB     SUNNY     87  60  39 S12       30.04F
CLOVIS AIRPORT MOSUNNY   88  57  35 S15G23      N/A

$$
NMZ028-029-538-042200-
SOUTHEAST PLAINS

CITY           SKY/WX    TMP DP  RH WIND       PRES   REMARKS
ROSWELL        SUNNY     92  55  28 SE12G23   30.00F
ARTESIA        SUNNY     90  57  33 SE12G18   30.00F
CARLSBAD       MOSUNNY   90  58  33 E7G20     29.97F
HOBBS          MOSUNNY   90  57  33 SE13G22   30.03F


$$



USA.gov is the U.S. government's official web portal to all federal, state and local government web resources and services.